Regional Weather Roundup
Issued by NWS

Home | Current Version | Previous Version | Graphics & Text | Print | Product List | Glossary On
Versions: 1 2 3 4 5 6 7 8 9 10 11 12 13 14 15 16 17 18 19 20 21 22 23 24 25 26 27 28 29 30 31 32 33 34 35 36 37 38 39 40 41 42 43 44 45 46 47 48 49 50
903
ASUS45 KPSR 050910
RWRAZ

ARIZONA HOURLY REGIONAL WEATHER ROUNDUP
NATIONAL WEATHER SERVICE PHOENIX AZ
200 AM MST FRI FEB 05 2016

NOTE: FAIR INDICATES FEW OR NO CLOUDS BELOW 12,000 FEET WITH NO
SIGNIFICANT WEATHER AND/OR OBSTRUCTIONS TO VISIBILITY.

AZZ001>003-036-051000-
NORTHWEST ARIZONA

CITY           SKY/WX    TMP DP  RH WIND       PRES   REMARKS
BULLHEAD CITY  CLEAR     50  25  37 N21G28    30.39R
KINGMAN        CLEAR     33  20  58 E8        30.39S WCI  26
$$

AZZ004>008-015-016-018-051000-
NORTH CENTRAL ARIZONA

CITY           SKY/WX    TMP DP  RH WIND       PRES   REMARKS
WILLIAMS       CLEAR     23  12  63 E8        30.39S WCI  14
PRESCOTT       CLEAR     28  19  69 CALM      30.35R
FLAGSTAFF      CLEAR     23  14  68 NE3       30.32S
PAYSON         CLEAR     32  12  43 N7        30.31R WCI  26
PAGE           CLEAR     27  20  75 E3        30.42S
$$

AZZ009>014-017-051000-
NORTHEAST ARIZONA

CITY           SKY/WX    TMP DP  RH WIND       PRES   REMARKS
WINSLOW        CLEAR     19  13  77 CALM      30.40R
SAINT JOHNS    PTCLDY    20  12  71 S5        30.33S WCI  13
WINDOW ROCK    CLEAR     11   0  61 CALM      30.32R
$$

AZZ023-051000-
GREATER PHOENIX AREA

CITY           SKY/WX    TMP DP  RH WIND       PRES   REMARKS
PHOENIX        NOT AVBL
LUKE AFB       CLEAR     46  22  39 N3        30.26R
DEER VALLEY    CLEAR     46  20  35 N7        30.25F
SCOTTSDALE     CLEAR     46  21  37 CALM      30.27R
MESA-GATEWAY   CLEAR     39  23  52 CALM      30.26S
$$

AZZ027-028-051000-
SOUTHWEST MARICOPA COUNTY AND PINAL COUNTY

CITY           SKY/WX    TMP DP  RH WIND       PRES   REMARKS
CASA GRANDE    CLEAR     46  16  29 CALM      30.25S
GILA BEND      FAIR      37  19  48 S5        30.25S WCI  34
$$

AZZ503-504-507>509-051000-
SOUTHEAST ARIZONA

CITY           SKY/WX    TMP DP  RH WIND       PRES   REMARKS
TUCSON         CLEAR     35  18  49 CALM      30.25S
DAVIS-MONTHAN  CLEAR     36  15  41 SE3       30.23R
NOGALES        CLEAR     33  11  39 VRB3      30.20S
SIERRA VISTA   CLEAR     35   7  31 CALM      30.25S
DOUGLAS        CLEAR     22   8  55 CALM      30.24F
SAFFORD        CLEAR     26  15  63 CALM      30.27S
$$

AZZ020-021-025-026-031-051000-
SOUTHWEST ARIZONA

CITY           SKY/WX    TMP DP  RH WIND       PRES   REMARKS
YUMA           CLEAR     53  17  24 N9        30.29S
$$

CAZ031-033-041-043-047-048-061-051000-
SOUTHERN CALIFORNIA

CITY           SKY/WX    TMP DP  RH WIND       PRES   REMARKS
DOWNTOWN L.A.  CLEAR     51  29  42 CALM      30.26F
L.A. AIRPORT   PTCLDY    58  29  33 N3        30.27S
SAN DIEGO      CLEAR     52  38  58 CALM      30.26F
BURBANK        CLEAR     47  26  44 N3        30.26F
ONTARIO        PTCLDY    50  28  42 NW5       30.26S
RIVERSIDE      CLEAR     56  19  23 CALM      30.30S
PALM SPRINGS   CLEAR     60  21  22 NW6       30.37S
EL CENTRO NAS  CLEAR     42   9  25 NW10      30.35S
IMPERIAL       CLEAR     41  18  39 NW5       30.32S
BLYTHE         CLEAR     52  21  29 N14       30.33S
NEEDLES        CLEAR     51  22  31 N17       30.36F
$$

NVZ020-UTZ003-051000-
SOUTHERN NEVADA-UTAH

CITY           SKY/WX    TMP DP  RH WIND       PRES   REMARKS
LAS VEGAS      PTCLDY    43  25  49 CALM      30.40F
SALT LAKE CITY LGT SNOW  27  24  89 S6        30.49R FOG     WCI  20
$$

NMZ009-TXZ055-051000-
NEW MEXICO-WEST TEXAS

CITY           SKY/WX    TMP DP  RH WIND       PRES   REMARKS
ALBUQUERQUE    CLEAR     27   9  46 N13       30.30R WCI  16
EL PASO        MOCLDY    29   7  39 N7        30.24F WCI  22
$$


........................KEY........................
SKY/WX - SKY CONDITION/WEATHER
TMP    - TEMPERATURE IN FAHRENHEIT
DP     - DEW POINT IN FAHRENHEIT
RH     - RELATIVE HUMIDITY IN PERCENT
WIND   - DIRECTION AND SPEED IN MILES PER HOUR (MPH)
VRB    - VARIABLE WIND DIRECTION
PRES   - MEAN SEA LEVEL PRESSURE IN INCHES OF MERCURY
         F - FALLING PRESSURE   R - RISING PRESSURE
         S - STEADY PRESSURE
VSB    - VISIBILITY IN MILES
HX     - HEAT INDEX IN FAHRENHEIT
WCI    - WIND CHILL INDEX IN FAHRENHEIT
TC     - TEMPERATURE IN CELSIUS WHICH IS ALSO KNOWN AS
         TEMPERATURE IN CENTIGRADE
AFB    - AIR FORCE BASE
         LUKE AFB IS LUKE AIR FORCE BASE
         DAVIS-MONTHAN IS DAVIS-MONTHAN AIR FORCE BASE
NAS    - NAVAL AIR STATION
         EL CENTRO NAS IS EL CENTRO NAVAL AIR STATION
N/A    - NOT AVAILABLE





USA.gov is the U.S. government's official web portal to all federal, state and local government web resources and services.